Weather in Kediri

Indonesia     7°49′16″S   111°59′56″E
temp.,
°C
wind,
m/s
gust,
m/s
humid.,
%
clouds,
%
prec.,
mm/h
press.,
hPa
HPBL,
m
20 april, tue
tue2001:00+23ssw478431 0.0 1011215
04:00+23ssw478657 0.0 1011190
07:00+24ssw48836 0.0 1012421
10:00+29s566220 0.0 10121218
13:00+30ssw55545 0.0 10091470
16:00+27s69725 0.0 1009614
19:00+24ssw6118221 0.0 1012358
22:00+24ssw510816 0.0 1013306
21 april, wed
wed2101:00+22ssw47834 0.0 1012175
04:00+22ssw36845 0.0 1011133
07:00+24ssw48825 0.0 1013398
10:00+28s66607 0.0 10121153
13:00+30ssw565470 0.0 10101373
16:00+27ssw6107015 0.0 1009538
19:00+24ssw6117940 0.0 1012370
22:00+23ssw597924 0.0 1013328
22 april, thu
thu2201:00+22ssw488120 0.0 1012206
04:00+21ssw358525 0.0 1011103
07:00+23ssw59815 0.0 1012435
10:00+28s555980 0.0 10121137
13:00+30s345179 0.0 10091580
16:00+27ssw697031 0.0 1008557
19:00+24ssw6107799 0.0 1011352
22:00+23ssw59777 0.0 1012260
23 april, fri
fri2301:00+23ssw488096 0.0 1011191
04:00+22ssw37837 0.0 1010155
07:00+24ssw48813 0.0 1012437
10:00+28s566120 0.0 10111269
13:00+30s555515 0.0 10081335
16:00+27s576788 0.0 1008528
19:00+23ssw5979100 0.0 1011229
22:00+22ssw3783100 0.0 1012154
24 april, sat
sat2401:00+21ssw4783100 0.0 1011153
04:00+21ssw3785100 0.0 1011154
07:00+23ssw478176 0.0 1013320
10:00+28s456125 0.0 10121019
13:00+29sse445667 0.0 10091200
16:00+27s566850 0.0 1009507
19:00+23s487864 0.1 1011215
22:00+23s4779100 0.0 1013198